This demonstration page uses our WeatherBlox Daily Observations layout. Learn more.

40.92945, -100.16068

Hourly Observations for August 18, 2019

Temp ( °F °C ) Dew Point ( °F °C ) Humidity (%) Winds ( mph kmh ) Pressure ( in mb ) Visibility ( mi km ) Precip ( " mm )
12:15 am 00:15 Hazy 72 22.3 57 14.1 60 60 Calm 29.59 1002 5 8.04672 0 0
12:35 am 00:35 Clear 70 21 57 13.8 64 64 Calm 29.59 1002 10 16.09344 0 0
12:55 am 00:55 Clear 70 21 57 13.7 63 63 Calm 29.59 1002 7 11.265408 0 0
1:15 am 01:15 Clear 68 20.2 56 13.6 66 66 NW 10 17 29.62 1003 10 16.09344 0 0
1:35 am 01:35 Clear 64 17.6 58 14.5 82 82 WNW 5 7 29.62 1003 10 16.09344 0 0
1:55 am 01:55 Clear 62 16.7 58 14.6 88 88 NW 8 13 29.68 1005 10 16.09344 0 0
2:15 am 02:15 Clear 65 18.2 61 16 87 87 N 13 20 29.65 1004 10 16.09344 0 0
2:35 am 02:35 Clear 65 18.2 63 17.1 93 93 N 13 20 29.65 1004 10 16.09344 0 0
2:55 am 02:55 Clear 64 17.8 62 16.7 93 93 NNW 8 13 29.68 1005 10 16.09344 0 0
3:15 am 03:15 Partly Cloudy 63 17.4 62 16.5 94 94 N 10 17 29.74 1007 10 16.09344 0 0
3:35 am 03:35 Partly Cloudy 63 17 61 16.3 96 96 N 10 17 29.74 1007 10 16.09344 0 0
3:55 am 03:55 Partly Cloudy 62 16.7 61 16 96 96 N 8 13 29.74 1007 10 16.09344 0 0
4:15 am 04:15 Partly Cloudy 62 16.7 61 15.9 95 95 N 9 15 29.77 1008 10 16.09344 0 0
4:35 am 04:35 Partly Cloudy 62 16.6 60 15.6 94 94 N 7 11 29.77 1008 10 16.09344 0 0
4:55 am 04:55 Mostly Cloudy 62 16.4 60 15.4 94 94 N 9 15 29.8 1009 10 16.09344 0 0
5:15 am 05:15 Partly Cloudy 61 16.1 59 15.1 94 94 N 6 9 29.8 1009 10 16.09344 0 0
5:35 am 05:35 Partly Cloudy 60 15.8 59 15 95 95 N 8 13 29.8 1009 10 16.09344 0 0
5:55 am 05:55 Partly Cloudy 60 15.6 59 14.8 95 95 N 7 11 29.83 1010 10 16.09344 0 0
6:10 am 06:10 Mostly Cloudy 60 15.5 58 14.7 95 95 NNW 9 15 29.83 1010 10 16.09344 0 0
6:35 am 06:35 Cloudy 60 15.7 59 14.8 94 94 N 8 13 29.83 1010 10 16.09344 0 0
6:55 am 06:55 Cloudy 61 16 59 15 94 94 NNW 6 9 29.85 1011 10 16.09344 0 0
7:15 am 07:15 Cloudy 61 16.2 59 15 93 93 NNW 7 11 29.85 1011 10 16.09344 0 0
7:35 am 07:35 Cloudy 62 16.4 59 14.9 91 91 NNW 6 9 29.88 1012 10 16.09344 0 0
7:55 am 07:55 Cloudy 62 16.5 59 15.1 92 92 N 7 11 29.91 1013 10 16.09344 0 0
8:15 am 08:15 Cloudy 62 16.6 59 15.2 92 92 N 9 15 29.91 1013 10 16.09344 0 0
8:35 am 08:35 Cloudy 62 16.9 60 15.4 91 91 N 6 9 29.91 1013 10 16.09344 0 0
8:55 am 08:55 Cloudy 63 17.2 60 15.3 89 89 N 8 13 29.91 1013 10 16.09344 0 0
9:15 am 09:15 Cloudy 63 17.2 60 15.3 89 89 N 10 17 29.91 1013 10 16.09344 0 0
9:35 am 09:35 Cloudy 64 17.5 59 15.1 86 86 NNE 7 11 29.91 1013 10 16.09344 0 0
9:55 am 09:55 Cloudy 64 17.5 60 15.3 87 87 N 12 19 29.94 1014 10 16.09344 0 0
10:15 am 10:15 Cloudy 64 17.7 59 15.1 85 85 NNE 9 15 29.94 1014 10 16.09344 0 0
10:35 am 10:35 Cloudy 64 18 60 15.3 84 84 NNE 9 15 29.94 1014 10 16.09344 0 0
10:55 am 10:55 Cloudy 65 18.1 60 15.3 84 84 NNE 10 17 29.94 1014 10 16.09344 0 0
11:15 am 11:15 Cloudy 65 18.6 60 15.4 82 82 NNE 8 13 29.94 1014 10 16.09344 0 0
11:35 am 11:35 Cloudy 67 19.2 61 16.2 83 83 N 8 13 29.91 1013 10 16.09344 0 0
11:55 am 11:55 Cloudy 66 19 61 15.9 82 82 NNE 6 9 29.91 1013 10 16.09344 0 0
12:15 pm 12:15 Cloudy 67 19.5 60 15.8 79 79 NNE 6 9 29.91 1013 10 16.09344 0 0
12:35 pm 12:35 Cloudy 68 19.9 61 16.2 79 79 NE 5 7 29.88 1012 10 16.09344 0 0
12:55 pm 12:55 Cloudy 68 19.9 61 15.9 78 78 NE 5 7 29.88 1012 10 16.09344 0 0
1:15 pm 13:15 Cloudy 69 20.4 61 16.3 77 77 E 3 6 29.88 1012 10 16.09344 0 0
1:35 pm 13:35 Cloudy 69 20.7 62 16.4 77 77 E 3 6 29.88 1012 10 16.09344 0 0
1:55 pm 13:55 Cloudy 70 21.1 61 16.1 73 73 Calm 29.88 1012 10 16.09344 0 0
2:15 pm 14:15 Cloudy 70 21.1 62 16.6 76 76 E 5 7 29.88 1012 10 16.09344 0 0
2:35 pm 14:35 Cloudy 70 21.3 62 16.4 74 74 Calm 29.88 1012 10 16.09344 0 0
2:55 pm 14:55 Cloudy 71 21.4 61 16.3 73 73 Calm 29.88 1012 10 16.09344 0 0
3:15 pm 15:15 Cloudy 72 22 62 16.8 72 72 Calm 29.88 1012 10 16.09344 0 0
3:35 pm 15:35 Cloudy 73 22.8 63 17.3 71 71 WSW 5 7 29.88 1012 10 16.09344 0 0
3:55 pm 15:55 Cloudy 74 23.5 64 17.7 70 70 SSE 5 7 29.83 1010 10 16.09344 0 0
4:15 pm 16:15 Cloudy 74 23.3 64 17.7 71 71 Calm 29.83 1010 10 16.09344 0 0
4:35 pm 16:35 Mostly Cloudy 75 23.7 64 17.7 69 69 SSE 3 6 29.83 1010 10 16.09344 0 0
4:55 pm 16:55 Partly Cloudy 74 23.6 64 17.9 70 70 Calm 29.83 1010 10 16.09344 0 0
5:15 pm 17:15 Partly Cloudy 75 24 65 18.1 70 70 SSW 3 6 29.83 1010 10 16.09344 0 0
5:35 pm 17:35 Partly Cloudy 75 23.8 64 18 70 70 Calm 29.83 1010 10 16.09344 0 0
5:55 pm 17:55 Partly Cloudy 76 24.6 65 18.5 69 69 S 3 6 29.83 1010 10 16.09344 0 0
6:15 pm 18:15 Sunny 76 24.3 64 18 68 68 Calm 29.83 1010 10 16.09344 0 0
6:35 pm 18:35 Sunny 76 24.3 65 18.3 69 69 ESE 3 6 29.8 1009 10 16.09344 0 0
6:55 pm 18:55 Sunny 75 24.1 65 18.6 71 71 SSE 3 6 29.8 1009 10 16.09344 0 0
7:15 pm 19:15 Sunny 75 24 66 18.7 72 72 ESE 3 6 29.8 1009 10 16.09344 0 0
7:35 pm 19:35 Sunny 75 23.8 66 18.8 74 74 Calm 29.8 1009 7 11.265408 0 0
7:55 pm 19:55 Sunny 74 23.1 67 19.4 80 80 Calm 29.83 1010 10 16.09344 0 0
8:15 pm 20:15 Sunny 72 22 67 19.3 85 85 NE 3 6 29.85 1011 10 16.09344 0 0
8:35 pm 20:35 Clear 69 20.5 67 19.3 93 93 ENE 5 7 29.85 1011 10 16.09344 0 0
8:55 pm 20:55 Clear 68 19.8 66 18.9 95 95 E 6 9 29.85 1011 10 16.09344 0 0
9:15 pm 21:15 Clear 67 19.6 65 18.5 93 93 E 6 9 29.85 1011 10 16.09344 0 0
9:35 pm 21:35 Clear 67 19.7 65 18.5 93 93 E 6 9 29.85 1011 10 16.09344 0 0
9:55 pm 21:55 Clear 67 19.7 65 18.4 92 92 E 8 13 29.88 1012 10 16.09344 0 0
10:15 pm 22:15 Clear 67 19.2 65 18.2 94 94 E 8 13 29.91 1013 10 16.09344 0 0
10:35 pm 22:35 Clear 66 19.1 64 18 93 93 E 8 13 29.91 1013 10 16.09344 0 0
10:55 pm 22:55 Clear 65 18.6 64 18 96 96 E 8 13 29.91 1013 10 16.09344 0 0
11:15 pm 23:15 Clear 66 18.7 64 18 96 96 E 8 13 29.91 1013 10 16.09344 0 0
11:35 pm 23:35 Clear 65 18.5 64 17.8 96 96 E 7 11 29.91 1013 10 16.09344 0 0
11:55 pm 23:55 Clear 65 18.2 64 17.8 98 98 E 8 13 29.91 1013 10 16.09344 0 0

Powered by AerisWeather